| time (UTC) | temp F | wind direction | speed knots | gust knots | rain 1hr in | rain 24hr in | rain mn in | humidity % | barometer mb |
| 20260503181505 | 0 | 0.0 | 0.0 | 0.00 | 0.00 | 0.00 | 1012.7 | ||
| 20260503180018 | 0 | 0.0 | 0.0 | 0.00 | 0.00 | 0.00 | 1012.8 | ||
| 20260503174513 | 0 | 0.0 | 0.0 | 0.00 | 0.00 | 0.00 | 1012.8 | ||
| 20260503173019 | 0 | 0.0 | 0.0 | 0.00 | 0.00 | 0.00 | 1012.8 | ||
| 20260503171510 | 0 | 0.0 | 0.0 | 0.00 | 0.00 | 0.00 | 1012.9 | ||
| 20260503081524 | 56 | 223 | 0.0 | 0.0 | 0.00 | 0.01 | 0.00 | 90 | 1013.9 |
| 20260503071532 | 57 | 223 | 0.0 | 0.9 | 0.00 | 1.37 | 0.00 | 89 | 1014.1 |
| 20260503054532 | 59 | 223 | 0.0 | 2.6 | 0.00 | 1.37 | 1.37 | 85 | 1014.3 |
| 20260503053004 | 61 | 47 | 0.0 | 0.0 | 0.00 | 1.37 | 1.37 | 83 | 1014.2 |
| 20260503051505 | 61 | 47 | 0.0 | 2.6 | 0.00 | 1.37 | 1.37 | 82 | 1014.1 |
| 20260503050003 | 61 | 32 | 0.9 | 3.5 | 0.00 | 1.37 | 1.37 | 82 | 1013.9 |
| 20260503044518 | 62 | 40 | 1.7 | 7.8 | 0.00 | 1.37 | 1.37 | 81 | 1013.9 |
| 20260503043007 | 62 | 32 | 3.5 | 7.0 | 0.00 | 1.37 | 1.37 | 79 | 1013.8 |
| 20260503041512 | 63 | 63 | 1.7 | 7.0 | 0.00 | 1.37 | 1.37 | 78 | 1013.7 |
| 20260503040012 | 63 | 48 | 2.6 | 5.2 | 0.00 | 1.37 | 1.37 | 78 | 1013.6 |
| 20260503034510 | 63 | 69 | 3.5 | 6.1 | 0.00 | 1.37 | 1.37 | 78 | 1013.7 |
| 20260503033014 | 63 | 65 | 0.9 | 4.3 | 0.00 | 1.37 | 1.37 | 78 | 1013.5 |
| 20260503031506 | 63 | 110 | 0.9 | 1.7 | 0.00 | 1.37 | 1.37 | 78 | 1013.7 |
| 20260503030004 | 63 | 0.0 | 0.0 | 0.00 | 1.37 | 1.37 | 69 | 1013.6 | |
| 20260503024504 | 63 | 254 | 0.0 | 0.0 | 0.00 | 1.37 | 1.37 | 68 | 1013.5 |
| 20260503023008 | 63 | 253 | 0.0 | 2.6 | 0.00 | 1.37 | 1.37 | 70 | 1013.6 |
| 20260503021514 | 63 | 321 | 0.0 | 2.6 | 0.00 | 1.37 | 1.37 | 71 | 1014.0 |
| 20260503020016 | 63 | 126 | 0.9 | 8.7 | 0.00 | 1.37 | 1.37 | 70 | 1014.4 |
| 20260503014512 | 65 | 135 | 1.7 | 7.8 | 0.00 | 1.37 | 1.37 | 66 | 1014.5 |
| 20260503013006 | 66 | 102 | 0.0 | 0.0 | 0.00 | 1.37 | 1.37 | 64 | 1013.6 |
| 20260503011508 | 67 | 234 | 0.0 | 0.0 | 0.00 | 1.37 | 1.37 | 62 | 1013.5 |
| 20260503010004 | 68 | 169 | 0.0 | 0.0 | 0.00 | 1.37 | 1.37 | 61 | 1013.4 |
| 20260503004525 | 68 | 182 | 0.0 | 0.0 | 0.00 | 1.37 | 1.37 | 60 | 1013.3 |
| 20260503003038 | 68 | 213 | 0.0 | 0.0 | 0.00 | 1.37 | 1.37 | 60 | 1013.2 |
| 20260503001508 | 68 | 213 | 0.0 | 0.0 | 0.00 | 1.37 | 1.37 | 60 | 1013.2 |
| 20260503000012 | 69 | 213 | 0.0 | 0.0 | 0.00 | 1.37 | 1.37 | 58 | 1013.2 |
| 20260502234514 | 70 | 101 | 0.0 | 0.0 | 0.00 | 1.37 | 1.37 | 54 | 1013.3 |
| 20260502233020 | 71 | 239 | 0.0 | 0.9 | 0.00 | 1.37 | 1.37 | 50 | 1013.5 |
| 20260502231507 | 71 | 5 | 0.0 | 4.3 | 0.00 | 1.37 | 1.37 | 50 | 1013.7 |
| 20260502230011 | 70 | 290 | 0.0 | 1.7 | 0.00 | 1.37 | 1.37 | 51 | 1013.9 |
| 20260502224515 | 69 | 281 | 0.0 | 5.2 | 0.00 | 1.37 | 1.37 | 50 | 1014.0 |
| 20260502223020 | 68 | 273 | 0.0 | 0.0 | 0.00 | 1.37 | 1.37 | 55 | 1014.3 |
| 20260502221521 | 68 | 334 | 0.0 | 0.9 | 0.00 | 1.37 | 1.37 | 54 | 1014.4 |
| 20260502220020 | 68 | 262 | 0.0 | 1.7 | 0.00 | 1.37 | 1.37 | 54 | 1014.6 |
| 20260502214511 | 67 | 329 | 0.0 | 2.6 | 0.00 | 1.37 | 1.37 | 55 | 1014.8 |
| 20260502213021 | 66 | 5 | 0.0 | 1.7 | 0.00 | 1.37 | 1.37 | 56 | 1015.2 |
| 20260502211517 | 65 | 297 | 0.0 | 2.6 | 0.00 | 1.37 | 1.37 | 58 | 1015.3 |
| 20260502210023 | 63 | 251 | 0.0 | 2.6 | 0.00 | 1.37 | 1.37 | 62 | 1015.5 |
| 20260502204526 | 63 | 299 | 0.0 | 0.0 | 0.00 | 1.37 | 1.37 | 62 | 1015.7 |
| 20260502203015 | 61 | 300 | 0.0 | 0.0 | 0.00 | 1.37 | 1.37 | 64 | 1016.0 |
| 20260502201525 | 60 | 54 | 0.0 | 0.9 | 0.00 | 1.37 | 1.37 | 66 | 1016.2 |
| 20260502200020 | 59 | 296 | 0.0 | 0.9 | 0.00 | 1.37 | 1.37 | 70 | 1016.2 |
| 20260502194526 | 59 | 272 | 0.0 | 0.0 | 0.00 | 1.37 | 1.37 | 69 | 1016.4 |
| 20260502193018 | 58 | 252 | 0.0 | 0.0 | 0.00 | 1.37 | 1.37 | 70 | 1016.4 |
| 20260502191513 | 58 | 248 | 0.0 | 1.7 | 0.00 | 1.37 | 1.37 | 72 | 1016.5 |
| 20260502190025 | 0 | 0.0 | 0.0 | 0.00 | 1.37 | 1.37 | 1016.9 | ||
| 20260502184532 | 0 | 0.0 | 0.0 | 0.00 | 1.37 | 1.37 | 1017.1 | ||
| 20260502183026 | 55 | 81 | 2.6 | 6.1 | 0.00 | 1.37 | 1.37 | 1017.1 |